This is the latest recevied weather packets stored in our database for station/object KD7JB. If no packets are shown the sender has not sent any weather packets the latest 10 day(s).
| Time | Temp. | Humidity | Pressure | Rain* | Wind** | Luminosity | Snow |
|---|---|---|---|---|---|---|---|
| 1777487974 | 11.67° C | 55% | 1184.2 hPa | 0 mm | - | 738 W/m² | - |
| 1777487671 | 11.67° C | 56% | 1184.4 hPa | 0 mm | - | 761 W/m² | - |
| 1777487368 | 11.67° C | 54% | 1184.3 hPa | 0 mm | - | 711 W/m² | - |
| 1777487066 | 11.11° C | 57% | 1184.2 hPa | 0 mm | - | 697 W/m² | - |
| 1777486761 | 11.67° C | 56% | 1184.3 hPa | 0 mm | - | 688 W/m² | - |
| 1777486460 | 11.11° C | 56% | 1184.4 hPa | 0 mm | - | 687 W/m² | - |
| 1777486157 | 11.11° C | 57% | 1184.2 hPa | 0 mm | - | 678 W/m² | - |
| 1777485855 | 11.11° C | 59% | 1184.2 hPa | 0 mm | - | 666 W/m² | - |
| 1777485555 | 11.11° C | 58% | 1184.4 hPa | 0 mm | - | 660 W/m² | - |
| 1777485251 | 11.67° C | 58% | 1184.2 hPa | 0 mm | - | 650 W/m² | - |
| 1777484947 | 11.67° C | 57% | 1184.1 hPa | 0 mm | - | 642 W/m² | - |
| 1777484645 | 11.11° C | 60% | 1184.1 hPa | 0 mm | - | 634 W/m² | - |
| 1777484341 | 11.11° C | 61% | 1184.1 hPa | 0 mm | - | 624 W/m² | - |
| 1777484036 | 10.56° C | 59% | 1184.2 hPa | 0 mm | - | 614 W/m² | - |
| 1777483734 | 10.56° C | 61% | 1184.1 hPa | 0 mm | - | 605 W/m² | - |
| 1777483429 | 10.56° C | 60% | 1184.2 hPa | 0 mm | - | 595 W/m² | - |
| 1777483124 | 10.56° C | 60% | 1184.1 hPa | 0 mm | - | 584 W/m² | - |
| 1777482822 | 10° C | 61% | 1184 hPa | 0 mm | - | 573 W/m² | - |
| 1777482517 | 10° C | 61% | 1184.1 hPa | 0 mm | - | 563 W/m² | - |
| 1777482216 | 10° C | 61% | 1184 hPa | 0 mm | - | 554 W/m² | - |
| 1777481912 | 10.56° C | 59% | 1184.1 hPa | 0 mm | - | 543 W/m² | - |
| 1777481610 | 10.56° C | 59% | 1184 hPa | 0 mm | - | 533 W/m² | - |
| 1777481307 | 10° C | 60% | 1183.7 hPa | 0 mm | - | 519 W/m² | - |
| 1777481004 | 10.56° C | 59% | 1183.7 hPa | 0 mm | - | 507 W/m² | - |
| 1777480701 | 10° C | 62% | 1183.7 hPa | 0 mm | - | 494 W/m² | - |
* Rain latest hour (hover to see other rain measurements)
** Current wind speed in m/s (hover to see current wind gust speed)